Location: Koussan�
(15.2012°N, 12.5548°W)
Time: 17:21:20
(UTC+00:00)

SWIFT - Pass Details

Date: 20 October 2020
Orbit: 544 x 560 km, 20.6° (Epoch: 29 November)

Event Time Altitude Azimuth Distance (km) Brightness Sun altitude
Rises 20:06:49 0° 284° (WNW) 2,719 7.0 -24.8°
Reaches altitude 10° 20:09:13 10° 292° (WNW) 1,822 5.8 -25.4°
Enters shadow 20:12:12 33° 328° (NNW) 929 3.6 -26.1°
